FW2567 Weather Reports


Display with metric or nautical units.
time (UTC)temp
F
wind
direction
speed
MPH
gust
MPH
rain 1hr
in
rain 24hr
in
rain mn
in
humidity
%
barometer
mb
20260509224532 77 2 2.0 7.0 0.00 0.00 0.00 38 1019.2
20260509223032 76 23 4.0 8.0 0.00 0.00 0.00 40 1019.5
20260509221532 76 13 4.0 8.0 0.00 0.00 0.00 41 1019.7
20260509220032 75 17 3.0 10.0 0.00 0.00 0.00 43 1019.8
20260509214605 74 17 3.0 9.0 0.00 0.00 0.00 45 1020.0
20260509213029 72 354 4.0 10.0 0.00 0.00 0.00 47 1020.2
20260509211531 72 336 2.0 6.0 0.00 0.00 0.00 48 1020.3
20260509210111 0 0 0.0 0.0 0.00 0.00 0.00 100
20260509204549 0 0 0.0 0.0 0.00 0.00 0.00 100
20260509203031 71 11 3.0 8.0 0.00 0.00 0.00 48 1020.7
20260509201530 71 15 4.0 8.0 0.00 0.00 0.00 48 1021.0
20260509200106 71 23 3.0 10.0 0.00 0.00 0.00 49 1021.2
20260509194529 71 16 3.0 8.0 0.00 0.00 0.00 48 1021.5
20260509193031 71 11 3.0 7.0 0.00 0.00 0.00 47 1021.6
20260509191529 70 4 3.0 7.0 0.00 0.00 0.00 47 1021.8
20260509190030 70 35 2.0 8.0 0.00 0.00 0.00 47 1021.9
20260509184603 70 48 3.0 7.0 0.00 0.00 0.00 46 1022.1
20260509183031 70 47 4.0 8.0 0.00 0.00 0.00 45 1022.2
20260509181531 68 12 2.0 5.0 0.00 0.00 0.00 46 1022.3
20260509174557 68 359 3.0 9.0 0.00 0.00 0.00 44 1022.3
20260509173031 67 15 2.0 7.0 0.00 0.00 0.00 45 1022.3
20260509171529 66 341 2.0 6.0 0.00 0.00 0.00 46 1022.4
20260509170032 66 345 1.0 6.0 0.00 0.00 0.00 46 1022.6
20260509163031 64 286 0.0 3.0 0.00 0.00 0.00 49 1022.7
20260509161646 63 349 1.0 3.0 0.00 0.00 0.00 51 1022.9
20260509160113 62 6 0.0 4.0 0.00 0.00 0.00 53 1022.9
20260509153030 59 294 0.0 2.0 0.00 0.00 0.00 57 1023.1
20260509151530 58 298 2.0 3.0 0.00 0.00 0.00 60 1023.2
20260509150030 57 21 0.0 3.0 0.00 0.00 0.00 65 1023.1
20260509144531 55 67 0.0 0.0 0.00 0.00 0.00 73 1023.2
20260509143031 52 105 0.0 1.0 0.00 0.00 0.00 81 1023.3
20260509141646 48 135 0.0 0.0 0.00 0.00 0.00 87 1023.2
20260509140029 44 135 0.0 0.0 0.00 0.00 0.00 90 1023.0
20260509134528 39 182 0.0 2.0 0.00 0.00 0.00 91 1022.9
20260509133030 36 198 0.0 3.0 0.00 0.00 0.00 92 1022.7
20260509131531 37 150 1.0 6.0 0.00 0.00 0.00 92 1022.6
20260509130028 37 164 3.0 21.0 0.00 0.00 0.00 93 1022.3
20260509124532 36 212 1.0 23.0 0.00 0.00 0.00 92 1022.2
20260509123106 36 205 1.0 4.0 0.00 0.00 0.00 92 1022.2
20260509121541 37 193 2.0 4.0 0.00 0.00 0.00 92 1022.2
20260509120031 36 189 2.0 24.0 0.00 0.00 0.00 91 1022.1
20260509114606 36 225 0.0 7.0 0.00 0.00 0.00 91 1022.1
20260509111530 37 220 0.0 3.0 0.00 0.00 0.00 90 1022.3
20260509110031 38 145 0.0 4.0 0.00 0.00 0.00 90 1022.3
20260509104531 39 170 1.0 5.0 0.00 0.00 0.00 89 1022.3
20260509103030 40 255 0.0 3.0 0.00 0.00 0.00 89 1022.4
20260509101605 40 188 2.0 5.0 0.00 0.00 0.00 88 1022.5
20260509100032 40 172 1.0 5.0 0.00 0.00 0.00 87 1022.6
20260509094529 41 292 0.0 3.0 0.00 0.00 0.00 85 1022.7
20260509093029 42 212 2.0 5.0 0.00 0.00 0.00 83 1022.7
20260509091604 44 354 0.0 3.0 0.00 0.00 0.00 82 1022.8
20260509090030 45 49 0.0 6.0 0.00 0.00 0.00 81 1023.0
20260509084531 46 148 3.0 10.0 0.00 0.00 0.00 81 1023.2
20260509083033 45 153 4.0 9.0 0.00 0.00 0.00 81 1023.4
20260509081531 46 164 4.0 5.0 0.00 0.00 0.00 80 1023.6
20260509080028 47 159 3.0 7.0 0.00 0.00 0.00 80 1023.8
20260509073031 46 156 5.0 10.0 0.00 0.00 0.00 82 1023.9
20260509063030 51 208 2.0 4.0 0.00 0.00 0.00 72 1024.2
20260509061530 53 250 1.0 4.0 0.00 0.00 0.00 71 1024.2
20260509060032 53 316 2.0 6.0 0.00 0.00 0.00 71 1024.1
20260509054532 53 137 2.0 5.0 0.00 0.00 0.00 71 1024.2
20260509053031 53 272 1.0 4.0 0.00 0.00 0.00 71 1024.1
20260509051529 51 260 1.0 7.0 0.00 0.00 0.00 72 1024.0
20260509050031 51 275 1.0 5.0 0.00 0.00 0.00 71 1023.9
20260509043031 52 248 2.0 8.0 0.00 0.00 0.00 69 1023.8
20260509041530 52 231 2.0 7.0 0.00 0.00 0.00 67 1023.5
20260509034605 54 246 2.0 8.0 0.00 0.00 0.00 63 1023.2
20260509031531 56 257 3.0 11.0 0.00 0.00 0.00 59 1022.7
20260509030146 57 255 3.0 10.0 0.00 0.00 0.00 57 1022.6
20260509024530 59 250 3.0 7.0 0.00 0.00 0.00 54 1022.5
20260509023032 60 263 4.0 9.0 0.00 0.00 0.00 51 1022.4
20260509021529 62 259 4.0 15.0 0.00 0.00 0.00 49 1022.3
20260509020030 62 250 5.0 14.0 0.00 0.00 0.00 47 1022.2
20260509013104 64 261 6.0 15.0 0.00 0.00 0.00 44 1022.1
20260509011531 65 261 6.0 18.0 0.00 0.00 0.00 42 1022.1
20260509010030 66 265 8.0 15.0 0.00 0.00 0.00 40 1022.0
20260509004530 67 274 8.0 18.0 0.00 0.00 0.00 39 1021.9
20260509003030 68 276 5.0 14.0 0.00 0.00 0.00 37 1021.9
20260509001530 69 258 7.0 21.0 0.00 0.00 0.00 35 1021.6
20260509000058 69 251 4.0 12.0 0.00 0.00 0.00 34 1021.5
20260508233030 69 246 6.0 24.0 0.00 0.00 0.00 34 1021.2
20260508231528 69 267 7.0 23.0 0.00 0.00 0.00 33 1021.2
20260508230029 69 276 6.0 17.0 0.00 0.00 0.00 32 1021.1